Clarksburg, WV

6:32 AM EDT on June 28, 2017 (GMT -0400)
Benedum

Weather History for KCKB - September, 2012

Change the Weather History Date:

Thursday, September 20, 2012

  Actual Average Record
Temperature  
Mean Temperature 58 °F -  
Max Temperature 75 °F 75 °F 92 °F (1932)
Min Temperature 42 °F 54 °F 34 °F (1937)
Degree Days  
Heating Degree Days 6    
Growing Degree Days 8 (Base 50)    
Moisture  
Dew Point 47 °F    
Average Humidity 72    
Maximum Humidity 96    
Minimum Humidity 40    
Precipitation  
Precipitation 0.00 in - - ()
Sea Level Pressure  
Sea Level Pressure 30.06 in    
Wind  
Wind Speed 2 mph (SW)    
Max Wind Speed 13 mph    
Max Gust Speed -    
Visibility 10 miles    
Events      
Averages and records for this station are not official NWS values.
T = Trace of Precipitation, MM = Missing Value Source: NWS Daily Summary

Daily Weather History Graph

Daily Weather History Graph

Search for Another Location

Airport or City:

Trip Planner

Search our weather history database for the weather conditions in past years. The results will help you decide how hot, cold, wet, or windy it might be!

Date:

Astronomy

Sep. 20, 2012 Rise Set
Actual Time 7:07 AM EDT 7:20 PM EDT
Civil Twilight 6:40 AM EDT 7:47 PM EDT
Nautical Twilight 6:08 AM EDT 8:18 PM EDT
Astronomical Twilight 5:37 AM EDT 8:50 PM EDT
Moon 12:21 PM EDT (9/20) 10:23 PM EDT (9/20)
Length of Visible Light 13h 06m
Length of Day
12h 13m
Waxing Crescent, 26% of the Moon is Illuminated
Sep 20
Waxing Crescent
Sep 22
First Quarter
Sep 29
Full
Oct 8
Last Quarter
Oct 15
New

Hourly Weather History & Observations

Time (EDT) Temp. Dew Point Humidity Pressure Visibility Wind Dir Wind Speed Gust Speed Precip Events Conditions
12:53 AM 45.0 °F 42.1 °F 90% 30.13 in 10.0 mi Calm Calm - N/A   Clear
1:53 AM 45.0 °F 42.1 °F 90% 30.13 in 10.0 mi Calm Calm - N/A   Clear
2:53 AM 44.1 °F 42.1 °F 93% 30.12 in 10.0 mi Calm Calm - N/A   Clear
3:53 AM 43.0 °F 41.0 °F 93% 30.10 in 10.0 mi Calm Calm - N/A   Clear
4:53 AM 42.1 °F 41.0 °F 96% 30.10 in 9.0 mi Calm Calm - N/A   Scattered Clouds
5:53 AM 44.1 °F 41.0 °F 89% 30.10 in 10.0 mi Calm Calm - N/A   Clear
6:53 AM 42.1 °F 39.9 °F 92% 30.11 in 10.0 mi Calm Calm - N/A   Clear
7:53 AM 44.1 °F 42.1 °F 93% 30.12 in 10.0 mi Calm Calm - N/A   Clear
8:53 AM 50.0 °F 45.0 °F 83% 30.12 in 10.0 mi Calm Calm - N/A   Clear
9:53 AM 57.0 °F 50.0 °F 77% 30.12 in 10.0 mi SSW 3.5 mph - N/A   Clear
10:53 AM 64.0 °F 53.1 °F 67% 30.08 in 10.0 mi SW 8.1 mph - N/A   Clear
11:53 AM 68.0 °F 50.0 °F 52% 30.07 in 10.0 mi WSW 10.4 mph - N/A   Clear
12:53 PM 71.1 °F 51.1 °F 49% 30.05 in 10.0 mi Variable 6.9 mph - N/A   Clear
1:53 PM 72.0 °F 50.0 °F 46% 30.04 in 10.0 mi West 11.5 mph - N/A   Clear
2:53 PM 73.0 °F 51.1 °F 46% 30.01 in 10.0 mi Variable 4.6 mph - N/A   Clear
3:53 PM 75.0 °F 50.0 °F 41% 30.00 in 10.0 mi SSW 12.7 mph - N/A   Clear
4:53 PM 73.9 °F 48.0 °F 40% 29.99 in 10.0 mi SSW 9.2 mph - N/A   Clear
5:53 PM 73.0 °F 48.0 °F 41% 29.98 in 10.0 mi South 8.1 mph - N/A   Clear
6:53 PM 69.1 °F 50.0 °F 51% 29.98 in 10.0 mi Calm Calm - N/A   Clear
7:53 PM 64.9 °F 51.1 °F 61% 29.99 in 10.0 mi Calm Calm - N/A   Clear
8:53 PM 61.0 °F 53.1 °F 75% 30.00 in 10.0 mi Calm Calm - N/A   Clear
9:53 PM 57.0 °F 52.0 °F 83% 30.01 in 10.0 mi Calm Calm - N/A   Clear
10:53 PM 55.9 °F 52.0 °F 87% 30.01 in 10.0 mi Calm Calm - N/A   Clear
11:53 PM 55.9 °F 52.0 °F 87% 30.00 in 10.0 mi Calm Calm - N/A   Clear